Wetbulb
59.36 57.59 56.88 59.15 56.38 57.74 53.04 52.48 55.36 54.89 54.56 54.16 54.10 53.87 54.58 51.95 51.82 53.69 51.21 51.62 51.62 51.12
58.46 56.75 55.47 57.04 58.55 54.23 53.58 52.90 53.73 53.87 53.57 53.03 52.99 53.11 52.55 51.38 51.44 51.98 52.38 51.37 50.99 50.27
55.15 55.10 55.23 56.56 55.89 54.82 53.65 52.72 53.15 52.51 52.49 52.54 52.46 52.66 53.60 51.42 51.61 51.10 50.66 50.45 50.80 49.75
53.23 53.13 54.24 54.20 54.27 54.66 54.21 54.12 52.77 52.30 51.93 51.99 52.08 52.45 51.65 50.72 50.27 49.75 49.64 50.02 49.18 48.68
50.03 50.07 49.41 49.60 51.41 53.72 53.42 53.68 52.24 51.14 50.87 50.60 50.86 51.40 50.02 49.10 49.31 48.80 48.00 47.94 48.50 47.80
49.37 48.90 49.39 50.36 51.60 51.85 50.76 49.54 49.27 48.96 49.28 49.25 50.24 49.88 50.30 50.28 49.52 48.71 48.03 47.67 48.13 47.82
49.05 49.23 48.26 48.91 49.87 49.95 49.59 49.55 48.77 48.74 48.50 48.85 48.78 48.95 49.64 49.54 49.21 48.49 48.81 48.45 48.92 48.58
50.06 50.66 49.45 48.04 48.43 49.52 48.93 48.30 49.06 48.96 49.11 49.65 48.87 48.43 48.69 47.34 47.56 48.81 49.17 49.46 49.75 49.77
50.17 49.96 48.82 48.64 47.10 48.03 47.68 47.76 47.70 47.96 48.90 48.00 48.18 47.55 46.74 47.00 46.12 47.98 48.21 48.41 49.39 50.25
50.27 49.52 49.50 49.01 48.64 48.15 47.31 48.35 48.01 48.90 48.93 48.17 48.59 46.43 45.79 46.55 46.56 47.22 47.57 48.51 48.74 49.39
50.41 48.82 49.28 49.56 48.38 48.74 50.01 49.59 49.07 48.62 49.43 50.10 50.92 47.62 45.26 46.51 47.94 48.55 48.79 48.81 49.02 49.35
49.80 49.96 50.21 49.75 49.98 51.16 50.69 50.54 50.01 50.50 50.46 50.65 51.27 49.09 45.54 46.23 47.87 48.15 48.65 50.00 50.53 50.37
51.69 51.85 51.47 51.98 52.61 53.19 52.39 51.65 51.28 51.03 51.65 51.23 51.19 49.40 45.54 45.81 47.76 48.15 48.99 49.93 49.36 47.55
53.27 53.42 54.10 54.48 54.91 53.80 53.03 52.21 52.10 51.37 52.19 52.55 52.39 52.29 47.36 45.60 48.55 48.90 47.25 46.75 46.87 45.98
MSLP
1018.75 1019.03 1019.41 1019.76 1019.68 1019.75 1020.65 1021.65 1022.11 1022.38 1022.57 1022.70 1022.74 1022.77 1022.88 1023.22 1023.24 1023.04 1023.26 1023.28 1023.11 1022.88
1019.21 1019.54 1019.90 1020.19 1020.23 1020.70 1021.17 1021.90 1022.39 1022.70 1022.92 1023.01 1022.99 1022.96 1023.16 1023.40 1023.29 1023.47 1023.40 1023.65 1023.63 1023.51
1019.90 1020.33 1020.71 1020.87 1021.02 1021.33 1021.84 1022.32 1022.66 1022.90 1023.04 1023.00 1023.04 1022.98 1023.01 1023.53 1023.59 1023.74 1023.76 1023.84 1023.95 1024.19
1020.49 1020.97 1021.29 1021.62 1021.80 1021.95 1022.27 1022.58 1022.93 1023.10 1023.27 1023.36 1023.39 1023.44 1023.53 1023.52 1023.74 1024.23 1024.40 1024.39 1024.37 1024.28
1021.42 1022.06 1022.34 1022.51 1022.72 1022.68 1022.85 1022.90 1023.03 1023.21 1023.38 1023.54 1023.76 1023.85 1023.94 1023.99 1024.14 1024.31 1024.40 1024.69 1024.73 1024.64
1022.09 1022.62 1023.02 1023.27 1023.34 1023.35 1023.55 1023.63 1023.69 1023.96 1023.86 1023.92 1023.96 1023.95 1024.02 1024.15 1024.42 1024.45 1024.44 1024.51 1024.71 1024.51
1022.57 1022.90 1023.17 1023.43 1023.87 1023.96 1024.14 1024.13 1023.91 1024.02 1024.28 1024.36 1024.39 1024.40 1024.39 1024.31 1024.47 1024.68 1024.69 1024.95 1024.77 1024.59
1022.60 1022.87 1023.39 1023.62 1024.10 1024.10 1024.29 1024.27 1024.15 1024.04 1024.11 1023.95 1023.91 1023.74 1023.88 1024.35 1024.67 1024.67 1024.70 1024.86 1024.46 1023.97
1022.61 1022.85 1023.26 1023.57 1024.04 1024.17 1024.23 1024.06 1023.93 1023.95 1024.07 1024.11 1024.09 1023.84 1023.96 1024.33 1024.76 1024.90 1024.92 1024.51 1024.22 1023.70
1022.18 1022.57 1023.02 1023.24 1023.38 1023.52 1023.58 1023.79 1023.78 1023.72 1023.78 1023.72 1023.66 1023.91 1024.06 1024.16 1024.27 1024.50 1024.58 1024.37 1023.86 1023.49
1021.60 1021.97 1022.23 1022.55 1023.03 1023.08 1022.96 1023.13 1023.35 1023.49 1023.35 1023.08 1022.80 1023.04 1023.39 1023.55 1023.75 1023.93 1023.85 1023.63 1023.22 1022.86
1020.61 1021.00 1021.35 1021.72 1022.00 1022.04 1022.30 1022.48 1022.70 1022.67 1022.56 1022.41 1022.28 1022.19 1022.75 1023.11 1023.38 1023.24 1022.98 1022.62 1022.20 1021.93
1019.79 1020.05 1020.41 1020.67 1021.02 1021.22 1021.51 1021.74 1021.83 1021.83 1021.71 1021.70 1021.71 1021.58 1022.13 1022.65 1022.82 1022.54 1022.29 1022.02 1021.69 1021.51
1019.54 1019.82 1020.08 1020.28 1020.52 1020.75 1021.05 1021.22 1021.33 1021.41 1021.17 1021.21 1021.27 1021.40 1021.87 1021.96 1022.26 1022.09 1022.05 1021.91 1021.73 1021.69
Wind_Speed
6 4 5 2 5 1 8 7 5 5 4 4 4 4 3 4 4 4 5 6 6 3
4 9 9 6 4 8 9 7 5 5 4 4 3 4 6 4 4 3 4 5 6 5
8 8 6 5 8 9 9 8 5 5 4 4 4 4 3 4 4 5 4 4 5 5
9 8 6 5 5 6 7 4 5 4 4 4 4 4 4 4 5 5 4 4 4 4
11 8 7 8 8 5 5 3 4 4 4 5 5 4 4 6 4 4 3 2 3 3
8 7 7 6 5 5 4 5 7 7 6 5 3 4 4 3 2 2 1 2 2 3
7 6 5 5 2 3 0 1 4 3 1 1 2 3 3 4 2 2 4 2 3 5
5 5 5 5 3 3 3 5 7 7 4 4 4 5 3 5 6 5 4 5 5 6
7 6 6 7 8 7 3 2 4 5 4 3 5 6 8 6 4 5 6 5 7 6
6 8 9 9 6 7 8 7 6 6 6 8 8 11 10 11 5 5 6 7 8 9
11 8 8 8 9 9 7 8 8 9 10 10 6 12 15 13 7 7 7 10 11 11
10 9 9 9 9 7 8 8 8 8 8 9 8 11 16 11 7 8 11 9 9 9
7 8 8 8 7 7 7 7 7 9 10 11 9 9 11 11 6 8 6 6 8 2
4 4 3 3 4 5 5 6 5 7 7 7 7 6 9 13 7 5 4 6 7 2
Wind_Direction
106 131 136 251 112 185 102 96 93 90 83 88 77 71 82 37 61 49 59 25 7 342
97 58 67 54 71 87 99 111 109 106 104 92 71 125 86 45 51 34 64 53 10 15
85 82 84 63 61 75 85 88 109 126 124 105 88 36 68 122 65 47 14 70 59 20
81 62 67 79 69 86 93 117 128 129 108 97 84 89 80 93 103 68 48 34 28 50
68 71 62 48 44 33 94 100 110 92 92 94 74 53 44 30 51 82 101 44 2 36
101 89 81 61 55 63 67 61 50 38 33 36 55 58 11 17 24 6 63 78 339 350
103 101 98 89 74 111 104 93 100 96 79 119 291 289 256 209 242 11 351 295 246 261
134 122 99 85 357 359 185 209 214 196 229 227 239 237 145 53 349 334 295 286 259 258
175 164 167 167 187 213 208 297 310 315 268 226 256 225 153 169 216 285 302 294 289 290
179 199 205 192 185 200 195 209 218 232 230 226 224 201 198 202 208 237 257 267 272 273
186 194 203 205 193 212 214 211 211 224 236 240 234 200 208 211 214 239 250 257 262 265
188 195 194 203 209 206 204 209 224 231 244 247 237 237 209 204 214 236 248 250 268 260
197 194 195 193 202 197 204 222 232 228 230 241 247 248 205 196 224 251 269 293 292 1
171 204 230 240 225 212 222 251 262 267 275 271 263 265 206 216 230 274 307 290 285 169